Regional Weather Roundup
Issued by NWS Cleveland, OH

Home | Current Version | Previous Version | Text Only | Print | Product List | Glossary On
Versions: 1 2 3 4 5 6 7 8 9 10 11 12 13 14 15 16 17 18 19 20 21 22 23 24 25 26 27 28 29 30 31 32 33 34 35 36 37 38 39 40 41 42 43 44 45 46 47 48 49 50
894
ASUS41 KCLE 220612
RWRCLE
OHIO REGIONAL WEATHER ROUNDUP
NATIONAL WEATHER SERVICE WILMINGTON, OH
100 AM EST SUN JAN 22 2017

NOTE: "FAIR" INDICATES FEW OR NO CLOUDS BELOW 12,000 FEET WITH NO
SIGNIFICANT WEATHER AND/OR OBSTRUCTIONS TO VISIBILITY.

OHZ001>008-015>018-024>027-034-035-043-044-220700-
   NORTHWEST OHIO

CITY           SKY/WX    TMP DP  RH WIND       PRES   REMARKS
DEFIANCE       FOG       43  42  97 CALM      29.61F VSB 1/4
FINDLAY        FAIR      50  46  86 SE6       29.62F
TOLEDO EXPRESS FOG       45  45 100 CALM      29.61F VSB 1/4
TOLEDO EXEC    FOG       46  46 100 S3        29.62F VSB 1
LIMA           FAIR      50  49  96 S9        29.62F
$$

OHZ009>014-019>023-028>033-038-089-220700-
   NORTHEAST OHIO

CITY           SKY/WX    TMP DP  RH WIND       PRES   REMARKS
CLE-HOPKINS    CLOUDY    57  50  77 S10       29.67F
CLE-LAKEFRONT  CLOUDY    57  50  77 SE12      29.64F
CUY CO. ARPT   NOT AVBL
LORAIN-ELYRIA  CLOUDY    55  49  80 S10       29.65F
ASHTABULA      CLOUDY    55  48  77 S16       29.66F
AKRON-CANTON   LGT RAIN  53  50  89 CALM      29.68F FOG
WOOSTER        CLOUDY    53  50  89 S7        29.68S
MANSFIELD      MOCLDY    54  50  86 S7        29.66F
YOUNGSTOWN     LGT RAIN  53  48  83 SW5       29.70F
$$

OHZ042-051>053-060>062-070>072-077>081-220700-
  SOUTHWEST OHIO

CITY           SKY/WX    TMP DP  RH WIND       PRES   REMARKS
CINC-COVINGTON CLOUDY    53  51  93 S5        29.63F
CINC-LUNKEN    FAIR      49  49 100 CALM      29.65F FOG
HAMILTON       FAIR      50  50 100 E3        29.65F
DAYTON         MOCLDY    50  49  96 S7        29.65F
WRIGHT-PAT AFB CLEAR     50  50 100 CALM      29.64F
DAYTON GENERAL FAIR      53  49  86 S7        29.64F
WILMINGTON     CLOUDY    53  51  93 SE7       29.65F
$$

OHZ036-037-039>041-045>050-054>059-063>069-073>076-082>088-220700-
  CENTRAL AND SOUTHEAST OHIO

CITY           SKY/WX    TMP DP  RH WIND       PRES   REMARKS
COLUMBUS       LGT RAIN  55  52  89 VRB3      29.65F
OSU AIRPORT    CLOUDY    54  51  90 S7        29.65F
BOLTON FIELD   CLOUDY    52  51  97 S5        29.67S
RICKENBACK AFB   N/A     51  52 100 SE6       29.66F
NEWARK         CLOUDY    51  50  96 CALM      29.67F FOG
MARION         CLOUDY    53  49  86 S9        29.66S
LANCASTER      CLOUDY    53  50  89 CALM      29.68F
ZANESVILLE     CLOUDY    53  50  89 N3        29.68S
NEW PHILLY     LGT RAIN  51  50  96 NW5       29.70R FOG
$$




USA.gov is the U.S. government's official web portal to all federal, state and local government web resources and services.